Location: Csohesd
(46.2500°N, 22.6167°E)
Time: 03:44:41
(UTC+00:00)

BlueWalker 3 - Visible Passes

Search period start: 28 November 2022 00:00
Search period end: 08 December 2022 00:00
Orbit: 500 x 519 km, 53.2° (Epoch: 27 November)

Date Brightness Start Highest point End Pass type
(mag) Time Alt. Az. Time Alt. Az. Time Alt. Az.
28 Nov 2.1 15:35:34 10° WSW 15:39:28 69° NNW 15:42:57 13° NE visible
28 Nov 3.6 17:15:07 10° WNW 17:17:47 27° NNW 17:17:47 27° NNW visible
29 Nov 2.2 15:17:13 10° WSW 15:21:08 66° NNW 15:25:02 10° NE visible
29 Nov 3.3 16:56:48 10° WNW 17:00:09 30° NNW 17:00:09 30° NNW visible
30 Nov 3.1 16:38:29 10° WNW 16:41:57 29° N 16:42:30 28° N visible
01 Dec 3.2 16:20:08 10° WNW 16:23:37 29° N 16:24:50 24° NNE visible
01 Dec 5.0 17:59:21 10° NW 17:59:39 12° NW 17:59:39 12° NW visible
02 Dec 3.2 16:01:48 10° WNW 16:05:17 29° N 16:07:11 19° NE visible
02 Dec 4.5 17:40:58 10° NW 17:42:00 17° NW 17:42:00 17° NW visible
03 Dec 3.2 15:43:28 10° WNW 15:46:55 29° N 15:49:33 15° NE visible
03 Dec 3.9 17:22:35 10° NW 17:24:22 23° NW 17:24:22 23° NW visible
04 Dec 3.2 15:25:06 10° WNW 15:28:34 29° N 15:31:56 10° ENE visible
04 Dec 3.3 17:04:12 10° NW 17:06:46 31° NNW 17:06:46 31° NNW visible
05 Dec 2.6 16:45:49 10° NW 16:49:12 40° N 16:49:12 40° N visible
06 Dec 2.4 16:27:25 10° NW 16:31:10 42° NNE 16:31:43 40° NE visible
06 Dec 5.1 18:06:08 10° WNW 18:06:33 13° WNW 18:06:33 13° WNW visible
07 Dec 2.4 16:09:01 10° NW 16:12:47 44° NNE 16:14:19 29° ENE visible
07 Dec 4.5 17:47:45 10° WNW 17:49:09 20° WNW 17:49:09 20° WNW visible
